Zurück zum Katalog

STARLINK-2639

AktivKommunikationVLEO
NORAD 48436·PAYLOAD·🇺🇸 United States

Gestartet May 9, 2021 von Cape Canaveral Space Force Station

Loading…

Nächste Überflüge (nächste 24 Stunden)

TLE

AktuellSource: CelesTrak SupGP

Epoche: Sep 14, 2026, 14:02 UTC

1 48436C 21040J   26257.58520833 -.00013454  00000+0 -43276-3 0  2578
2 48436  53.1613  19.0736 0001356  87.7734 166.8517 15.31700402    11

Verfolge STARLINK-2639 in Echtzeit mit AllMySat

Download on the App Store